Location: North Runcton
(52.7000°N, 0.4333°E)
Time: 04:57:23
(UTC+00:00)

CENTAUR R/B - Pass Details

Date: 19 May 2025
Orbit: 645 x 1537 km, 63.4° (Epoch: 13 June)

Event Time Altitude Azimuth Distance (km) Brightness Sun altitude
Rises 21:20:24 0° 300° (WNW) 3,833 7.0 -10.0°
Reaches altitude 10° 21:23:01 10° 307° (NW) 3,005 6.4 -10.2°
Maximum altitude 21:30:01 44° 19° (NNE) 1,741 4.1 -10.8°
Drops below altitude 10° 21:38:21 10° 89° (E) 3,575 5.1 -11.5°
Sets 21:41:44 0° 96° (E) 4,625 5.7 -11.8°
